Tracking 17145 objects as of 24-May-2015
HD Live streaming from Space Station

ERS 2

Track ERS 2 now!
10-day predictions
ERS 2 is classified as:


NORAD ID: 23560
Int'l Code: 1995-021A
Perigee: 524.0 km
Apogee: 529.1 km
Inclination: 98.5 °
Period: 95.0 minutes
Semi major axis: 6897 km
RCS: 9.2311 m2 (large)
Launch date: April 21, 1995
Source: European Space Agency (ESA)

Earth resources spacecraft; measure ocean surface and waves, temperatures; monitor ozone and ozone-destroying gases; ocean currents and changes in Arctic and Antarctic ice.
Your satellite tracking list
Your tracking list is empty





NASA's NSSDC Master Catalog

Two Line Element Set (TLE):
1 23560U 95021A   15144.18574539  .00006083  00000-0  32522-3 0  9994
2 23560 098.5220 030.1020 0003670 007.8615 352.2589 15.15521399 60813

Source of the keplerian elements: AFSPC

N2YO: 327